Location: Peebles
(55.6412°N, 3.1714°W)
Time: 06:35:07
(UTC+00:00)

Cosmos 2154 Rocket - Visible Passes

Search period start: 28 January 2022 00:00
Search period end: 07 February 2022 00:00
Orbit: 966 x 996 km, 82.9° (Epoch: 27 January)

Date Brightness Start Highest point End Pass type
(mag) Time Alt. Az. Time Alt. Az. Time Alt. Az.
28 Jan 6.0 03:38:37 10° SE 03:43:36 25° E 03:48:37 10° NNE visible
28 Jan 3.9 05:22:07 10° SSW 05:28:29 80° WNW 05:34:53 10° N visible
28 Jan 5.1 07:10:18 10° WSW 07:15:05 22° NW 07:19:54 10° N visible
28 Jan 6.7 17:57:50 10° NW 18:01:15 15° WNW 18:04:39 10° WSW visible
29 Jan 5.2 04:04:31 10° SSE 04:10:20 40° E 04:16:11 10° NNE visible
29 Jan 4.1 05:49:35 10° SSW 05:55:45 52° WNW 06:01:59 10° N visible
30 Jan 6.6 02:49:40 10° ESE 02:52:58 15° ENE 02:56:16 10° NE visible
30 Jan 4.4 04:32:36 19° S 04:37:15 63° E 04:43:32 10° NNE visible
30 Jan 4.6 06:17:31 10° SW 06:23:13 34° WNW 06:28:58 10° N visible
31 Jan 6.0 03:16:11 16° ESE 03:19:30 24° E 03:24:24 10° NNE visible
31 Jan 3.9 05:01:03 31° SSW 05:04:19 84° W 05:10:44 10° N visible
31 Jan 5.1 06:45:59 10° WSW 06:50:53 23° NW 06:55:48 10° N visible
31 Jan 6.6 17:33:33 10° NW 17:37:09 16° WNW 17:40:46 10° WSW visible
01 Feb 5.2 03:44:09 30° SE 03:46:14 38° E 03:52:00 10° NNE visible
01 Feb 4.1 05:29:00 34° SW 05:31:36 54° WNW 05:37:51 10° N visible
01 Feb 5.5 07:15:06 10° W 07:18:44 15° NW 07:22:22 10° NNW visible
02 Feb 6.5 02:27:01 12° E 02:28:54 14° ENE 02:31:57 10° NE visible
02 Feb 4.4 04:11:51 50° SE 04:13:07 60° E 04:19:22 10° NNE visible
02 Feb 4.6 05:56:41 27° WSW 05:59:02 35° WNW 06:04:50 10° N visible
03 Feb 5.9 02:54:34 22° E 02:55:25 23° E 03:00:10 10° NNE visible
03 Feb 3.9 04:39:23 70° SSW 04:40:11 87° W 04:46:35 10° NNE visible
03 Feb 5.1 06:24:11 19° W 06:26:40 24° NW 06:31:41 10° N visible
04 Feb 5.3 03:21:59 36° E 03:22:07 36° E 03:27:49 10° NNE visible
04 Feb 4.0 05:06:48 54° W 05:07:25 56° WNW 05:13:42 10° N visible
04 Feb 5.5 06:51:36 12° WNW 06:54:30 16° NW 06:58:17 10° N visible
05 Feb 6.5 02:04:31 13° ENE 02:04:49 13° ENE 02:07:36 10° NE visible
05 Feb 4.5 03:49:19 57° E 03:49:19 57° E 03:55:12 10° NNE visible
05 Feb 4.5 05:34:08 36° W 05:34:51 37° WNW 05:40:41 10° N visible
06 Feb 6.0 02:31:47 22° ENE 02:31:47 22° ENE 02:35:57 10° NNE visible
06 Feb 4.0 04:16:35 76° NNE 04:16:35 76° NNE 04:22:26 10° NNE visible
06 Feb 5.0 06:01:24 23° WNW 06:02:28 25° WNW 06:07:33 10° N visible
